Regional Weather Roundup
Issued by NWS Bismarck, ND

Home | Current Version | Previous Version | Text Only | Print | Product List | Glossary On
Versions: 1 2 3 4 5 6 7 8 9 10 11 12 13 14 15 16 17 18 19 20 21 22 23 24 25 26 27 28 29 30 31 32 33 34 35 36 37 38 39 40 41 42 43 44 45 46 47 48 49 50
000
ASUS43 KBIS 300220
RWRBIS

NWR BROADCAST TEXT
NATIONAL WEATHER SERVICE BISMARCK ND
900 PM CDT WED OCT 29 2014

NOTE: "FAIR" INDICATES FEW OR NO CLOUDS BELOW 12,000 FEET WITH NO
SIGNIFICANT WEATHER AND/OR OBSTRUCTIONS TO VISIBILITY.


CITY           SKY/WX    TMP DP  RH WIND       PRES   REMARKS
WILLISTON      CLEAR     44  35  70 N13       29.96R
MINOT          PTCLDY    39  34  82 W7        29.90R
MINOT AFB      PTCLDY    31  30  96 W8        29.90R
BISMARCK       CLOUDY    45  44  97 SW5       29.95R
DICKINSON      PTCLDY    43  37  79 W12       29.94R
GARRISON         N/A     40  32  73 W8        29.91R
HETTINGER ARPT PTCLDY    37  33  85 W6        29.99R
JAMESTOWN      CLOUDY    42  39  89 S12       29.94R
BEACH            N/A     43  37  81 W12       30.00S
CARRINGTON     CLOUDY    45  41  87 SW8       29.92F
CROSBY         FAIR      37  37 100 NW9       29.97R
HARVEY         FAIR      39  37  93 W6        29.90F
HAZEN          FAIR      41  39  93 W6        29.93S
LINTON         CLOUDY    45  45 100 CALM      29.96R
MANDAN         FAIR      45  43  93 W6        29.95S
OAKES            N/A     41  39  93 SE5       29.97F
RUGBY          FAIR      36  34  93 CALM      29.90S
STANLEY        FAIR      37  37 100 W9        29.91S
TIOGA          FAIR      41  41 100 NW12      29.96R
$$

CITY           SKY/WX    TMP DP  RH WIND       PRES   REMARKS
GRAND FORKS    CLOUDY    39  29  67 SE7       30.00F
GRAND FORKS AF CLOUDY    39  31  71 SE8       30.00S
DEVILS LAKE    CLOUDY    41  30  65 SE13      29.90F
FARGO          CLOUDY    41  30  65 SE12      30.00F
CANDO          MOCLDY    37  32  81 SE10      29.92S
CAVALIER       MOCLDY    37  28  70 SE6       30.00S
GRAFTON        MOCLDY    37  28  70 SE10      30.00F
GWINNER        CLOUDY    43  37  81 S6        29.99F
LANGDON        CLOUDY    36  28  75 SE12      29.95F
ROLLA          CLOUDY    37  32  81 E9        29.93R
WALHALLA       FAIR      37  28  70 SE7       29.99F
$$

CITY           SKY/WX    TMP DP  RH WIND       PRES   REMARKS
ABERDEEN       CLOUDY    47  35  63 S10       29.97F
MOBRIDGE       CLOUDY    49  36  61 NW3       29.94S
BUFFALO          N/A     42  34  73 NW12      29.96R
RAPID CITY     PTCLDY    50  35  56 NW12      30.07R
GLASGOW        PTCLDY    47  32  56 N14       30.03R
SIDNEY         CLEAR     43  34  70 W10       30.00R
WOLF POINT     PTCLDY    47  33  58 NW14      30.01R
GLENDIVE       PTCLDY    43  34  70 W10       30.02R
MILES CITY     CLEAR     46  32  58 W8        30.06R
BAKER          CLEAR     40  35  83 W8        30.03R
$$

CITY           SKY/WX    TMP DP  RH WIND       PRES   REMARKS
BILLINGS       PTCLDY    51  28  41 W13       30.13R
GREAT FALLS    CLEAR     45  34  65 SW9       30.14R
REGINA         CLOUDY    37  32  81 N10G17    30.04R
ESTEVAN        CLEAR     32  30  93 NW8       29.95R
$$




USA.gov is the U.S. government's official web portal to all federal, state and local government web resources and services.